Time,TemperatureF,DewpointF,PressureIn,WindDirection,WindDirectionDegrees,WindSpeedMPH,WindSpeedGustMPH,Humidity,HourlyPrecipIn,Conditions,Clouds,dailyrainin,SolarRadiationWatts/m^2,SoftwareType,DateUTC
2013-03-15 00:01:00,46.0,21.8,30.06,NNE,30,0.0,0.0,38,0.00,,CLR,0.00,0.00,VWS V14.01,2013-03-15 07:01:00,
2013-03-15 00:06:00,45.6,21.5,30.06,NNE,30,1.0,2.0,38,0.00,,CLR,0.00,0.00,VWS V14.01,2013-03-15 07:06:00,
2013-03-15 00:11:00,45.3,21.8,30.06,NNE,30,1.0,2.0,39,0.00,,CLR,0.00,0.00,VWS V14.01,2013-03-15 07:11:00,
2013-03-15 00:16:00,45.1,21.6,30.07,NNE,30,0.0,0.0,39,0.00,,CLR,0.00,0.00,VWS V14.01,2013-03-15 07:16:00,
2013-03-15 00:21:00,44.2,20.8,30.07,NNE,30,0.0,1.0,39,0.00,,CLR,0.00,0.00,VWS V14.01,2013-03-15 07:21:00,
2013-03-15 00:26:00,43.1,21.0,30.07,NNE,30,1.0,1.0,41,0.00,,CLR,0.00,0.00,VWS V14.01,2013-03-15 07:26:00,
2013-03-15 00:31:00,42.9,21.4,30.07,NNE,30,2.0,3.0,42,0.00,,CLR,0.00,0.00,VWS V14.01,2013-03-15 07:31:00,
2013-03-15 00:36:00,42.9,22.0,30.07,NW,309,3.0,3.0,43,0.00,,CLR,0.00,0.00,VWS V14.01,2013-03-15 07:36:00,
2013-03-15 00:41:00,43.3,22.3,30.07,NW,306,3.0,3.0,43,0.00,,CLR,0.00,0.00,VWS V14.01,2013-03-15 07:41:00,
2013-03-15 00:46:00,43.4,21.9,30.07,WNW,302,1.0,4.0,42,0.00,,CLR,0.00,0.00,VWS V14.01,2013-03-15 07:46:00,
2013-03-15 00:51:00,43.4,22.4,30.07,WNW,300,2.0,4.0,43,0.00,,CLR,0.00,0.00,VWS V14.01,2013-03-15 07:51:00,
2013-03-15 00:57:00,43.3,23.4,30.07,WNW,300,1.0,2.0,45,0.00,,CLR,0.00,0.00,VWS V14.01,2013-03-15 07:57:00,
2013-03-15 01:02:00,43.4,23.5,30.07,WNW,300,0.0,0.0,45,0.00,,CLR,0.00,0.00,VWS V14.01,2013-03-15 08:02:00,
2013-03-15 01:07:00,43.4,23.5,30.06,WNW,300,0.0,0.0,45,0.00,,CLR,0.00,0.00,VWS V14.01,2013-03-15 08:07:00,
2013-03-15 01:12:00,43.4,23.5,30.06,WNW,300,0.0,0.0,45,0.00,,CLR,0.00,0.00,VWS V14.01,2013-03-15 08:12:00,
2013-03-15 01:17:00,42.3,22.0,30.07,SSE,164,0.0,1.0,44,0.00,,CLR,0.00,0.00,VWS V14.01,2013-03-15 08:17:00,
2013-03-15 01:22:00,41.7,21.9,30.07,SSE,161,1.0,2.0,45,0.00,,CLR,0.00,0.00,VWS V14.01,2013-03-15 08:22:00,
2013-03-15 01:27:00,41.0,22.3,30.07,SSE,161,0.0,0.0,47,0.00,,CLR,0.00,0.00,VWS V14.01,2013-03-15 08:27:00,
2013-03-15 01:32:00,40.8,23.6,30.07,WSW,246,2.0,4.0,50,0.00,,CLR,0.00,0.00,VWS V14.01,2013-03-15 08:32:00,
2013-03-15 01:37:00,41.3,25.5,30.07,WSW,247,2.0,3.0,53,0.00,,CLR,0.00,0.00,VWS V14.01,2013-03-15 08:37:00,
2013-03-15 01:42:00,42.0,27.0,30.07,WSW,238,1.0,3.0,55,0.00,,CLR,0.00,0.00,VWS V14.01,2013-03-15 08:42:00,
2013-03-15 01:47:00,42.6,26.7,30.06,WSW,248,0.0,1.0,53,0.00,,CLR,0.00,0.00,VWS V14.01,2013-03-15 08:47:00,
2013-03-15 01:52:00,42.9,26.5,30.06,WSW,248,0.0,1.0,52,0.00,,CLR,0.00,0.00,VWS V14.01,2013-03-15 08:52:00,
2013-03-15 01:57:00,42.8,25.9,30.07,WSW,248,0.0,2.0,51,0.00,,CLR,0.00,0.00,VWS V14.01,2013-03-15 08:57:00,
2013-03-15 02:02:00,42.7,25.9,30.07,WSW,248,0.0,0.0,51,0.00,,CLR,0.00,0.00,VWS V14.01,2013-03-15 09:02:00,
2013-03-15 02:07:00,42.7,25.4,30.07,WSW,248,1.0,1.0,50,0.00,,CLR,0.00,0.00,VWS V14.01,2013-03-15 09:07:00,
2013-03-15 02:12:00,42.2,25.4,30.07,East,98,2.0,2.0,51,0.00,,CLR,0.00,0.00,VWS V14.01,2013-03-15 09:12:00,
2013-03-15 02:17:00,41.3,24.5,30.07,SE,140,0.0,3.0,51,0.00,,CLR,0.00,0.00,VWS V14.01,2013-03-15 09:17:00,
2013-03-15 02:22:00,40.9,25.5,30.06,SE,140,0.0,1.0,54,0.00,,CLR,0.00,0.00,VWS V14.01,2013-03-15 09:22:00,
2013-03-15 02:27:00,40.6,25.3,30.06,SE,140,0.0,1.0,54,0.00,,CLR,0.00,0.00,VWS V14.01,2013-03-15 09:27:00,
2013-03-15 02:32:00,40.2,24.9,30.06,South,186,1.0,2.0,54,0.00,,CLR,0.00,0.00,VWS V14.01,2013-03-15 09:32:00,
2013-03-15 02:37:00,39.6,24.8,30.06,South,186,1.0,1.0,55,0.00,,CLR,0.00,0.00,VWS V14.01,2013-03-15 09:37:00,
2013-03-15 02:42:00,38.9,24.6,30.06,South,186,1.0,2.0,56,0.00,,CLR,0.00,0.00,VWS V14.01,2013-03-15 09:42:00,
2013-03-15 02:47:00,38.7,24.4,30.06,South,186,0.0,2.0,56,0.00,,CLR,0.00,0.00,VWS V14.01,2013-03-15 09:47:00,
2013-03-15 02:52:00,38.6,24.7,30.06,North,5,2.0,3.0,57,0.00,,CLR,0.00,0.00,VWS V14.01,2013-03-15 09:52:00,
2013-03-15 02:57:00,39.2,26.1,30.07,NW,326,3.0,4.0,59,0.00,,CLR,0.00,0.00,VWS V14.01,2013-03-15 09:57:00,
2013-03-15 03:02:00,39.9,25.9,30.06,NW,311,1.0,2.0,57,0.00,,CLR,0.00,0.00,VWS V14.01,2013-03-15 10:02:00,
2013-03-15 03:07:00,40.0,25.6,30.06,NW,311,1.0,2.0,56,0.00,,CLR,0.00,0.00,VWS V14.01,2013-03-15 10:07:00,
2013-03-15 03:12:00,40.0,25.6,30.06,NW,311,1.0,1.0,56,0.00,,CLR,0.00,0.00,VWS V14.01,2013-03-15 10:12:00,
2013-03-15 03:17:00,40.0,25.6,30.06,NW,311,0.0,1.0,56,0.00,,CLR,0.00,0.00,VWS V14.01,2013-03-15 10:17:00,
2013-03-15 03:22:00,40.0,26.0,30.06,NW,311,2.0,2.0,57,0.00,,CLR,0.00,0.00,VWS V14.01,2013-03-15 10:22:00,
2013-03-15 03:27:00,40.0,25.6,30.06,NW,311,0.0,1.0,56,0.00,,CLR,0.00,0.00,VWS V14.01,2013-03-15 10:27:00,
2013-03-15 03:32:00,39.9,25.1,30.07,NW,311,0.0,0.0,55,0.00,,CLR,0.00,0.00,VWS V14.01,2013-03-15 10:32:00,
2013-03-15 03:37:00,39.7,24.4,30.07,NE,55,2.0,2.0,54,0.00,,CLR,0.00,0.00,VWS V14.01,2013-03-15 10:37:00,
2013-03-15 03:42:00,38.9,23.7,30.06,NE,55,0.0,1.0,54,0.00,,CLR,0.00,0.00,VWS V14.01,2013-03-15 10:42:00,
2013-03-15 03:47:00,38.5,24.6,30.06,NE,55,0.0,0.0,57,0.00,,CLR,0.00,0.00,VWS V14.01,2013-03-15 10:47:00,
2013-03-15 03:52:00,38.2,24.7,30.06,NE,55,1.0,1.0,58,0.00,,CLR,0.00,0.00,VWS V14.01,2013-03-15 10:52:00,
2013-03-15 03:57:00,38.2,25.5,30.06,WNW,295,1.0,2.0,60,0.00,,CLR,0.00,0.00,VWS V14.01,2013-03-15 10:57:00,
2013-03-15 04:02:00,38.0,24.1,30.06,WNW,296,0.0,1.0,57,0.00,,CLR,0.00,0.00,VWS V14.01,2013-03-15 11:02:00,
2013-03-15 04:07:00,37.4,24.0,30.06,SW,230,0.0,1.0,58,0.00,,CLR,0.00,0.00,VWS V14.01,2013-03-15 11:07:00,
2013-03-15 04:12:00,37.3,24.7,30.06,SW,230,0.0,1.0,60,0.00,,CLR,0.00,0.00,VWS V14.01,2013-03-15 11:12:00,
2013-03-15 04:17:00,37.4,24.4,30.06,SW,230,0.0,0.0,59,0.00,,CLR,0.00,0.00,VWS V14.01,2013-03-15 11:17:00,
2013-03-15 04:22:00,37.2,24.2,30.06,SW,230,0.0,2.0,59,0.00,,CLR,0.00,0.00,VWS V14.01,2013-03-15 11:22:00,
2013-03-15 04:27:00,37.0,24.4,30.06,SW,230,0.0,1.0,60,0.00,,CLR,0.00,0.00,VWS V14.01,2013-03-15 11:27:00,
2013-03-15 04:32:00,37.3,25.1,30.06,WSW,237,2.0,3.0,61,0.00,,CLR,0.00,0.00,VWS V14.01,2013-03-15 11:32:00,
2013-03-15 04:37:00,37.8,24.8,30.06,West,281,1.0,3.0,59,0.00,,CLR,0.00,0.00,VWS V14.01,2013-03-15 11:37:00,
2013-03-15 04:43:00,38.2,25.1,30.06,WNW,283,2.0,3.0,59,0.00,,CLR,0.00,0.00,VWS V14.01,2013-03-15 11:43:00,
2013-03-15 04:48:00,38.5,25.0,30.06,WNW,283,1.0,2.0,58,0.00,,CLR,0.00,0.00,VWS V14.01,2013-03-15 11:48:00,
2013-03-15 04:53:00,38.8,25.3,30.06,WNW,282,1.0,3.0,58,0.00,,CLR,0.00,0.00,VWS V14.01,2013-03-15 11:53:00,
2013-03-15 04:58:00,39.2,25.7,30.06,WNW,282,2.0,3.0,58,0.00,,CLR,0.00,0.00,VWS V14.01,2013-03-15 11:58:00,
2013-03-15 05:03:00,39.5,25.5,30.06,WNW,282,0.0,1.0,57,0.00,,CLR,0.00,0.00,VWS V14.01,2013-03-15 12:03:00,
2013-03-15 05:08:00,39.5,25.5,30.06,WNW,282,0.0,0.0,57,0.00,,CLR,0.00,0.00,VWS V14.01,2013-03-15 12:08:00,
2013-03-15 05:13:00,39.4,25.0,30.06,WNW,282,0.0,1.0,56,0.00,,CLR,0.00,0.00,VWS V14.01,2013-03-15 12:13:00,
2013-03-15 05:18:00,39.5,25.5,30.06,WNW,282,0.0,1.0,57,0.00,,CLR,0.00,0.00,VWS V14.01,2013-03-15 12:18:00,
2013-03-15 05:23:00,39.7,25.7,30.06,WNW,282,0.0,1.0,57,0.00,,CLR,0.00,0.00,VWS V14.01,2013-03-15 12:23:00,
2013-03-15 05:28:00,39.5,25.1,30.06,WNW,282,0.0,0.0,56,0.00,,CLR,0.00,0.00,VWS V14.01,2013-03-15 12:28:00,
2013-03-15 05:33:00,39.5,25.1,30.06,WNW,282,0.0,0.0,56,0.00,,CLR,0.00,0.00,VWS V14.01,2013-03-15 12:33:00,
2013-03-15 05:38:00,39.3,24.9,30.07,WNW,282,0.0,0.0,56,0.00,,CLR,0.00,0.00,VWS V14.01,2013-03-15 12:38:00,
2013-03-15 05:43:00,38.1,23.8,30.07,West,281,1.0,3.0,56,0.00,,CLR,0.00,0.00,VWS V14.01,2013-03-15 12:43:00,
2013-03-15 05:48:00,37.4,24.0,30.07,West,281,0.0,0.0,58,0.00,,CLR,0.00,0.00,VWS V14.01,2013-03-15 12:48:00,
2013-03-15 05:53:00,37.2,24.2,30.07,West,281,1.0,1.0,59,0.00,,CLR,0.00,0.00,VWS V14.01,2013-03-15 12:53:00,
2013-03-15 05:58:00,36.4,24.2,30.07,West,281,0.0,2.0,61,0.00,,CLR,0.00,0.00,VWS V14.01,2013-03-15 12:58:00,
2013-03-15 06:03:00,36.3,24.9,30.07,West,281,0.0,1.0,63,0.00,,CLR,0.00,0.00,VWS V14.01,2013-03-15 13:03:00,
2013-03-15 06:08:00,35.9,24.2,30.07,West,281,0.0,1.0,62,0.00,,CLR,0.00,0.00,VWS V14.01,2013-03-15 13:08:00,
2013-03-15 06:13:00,35.9,24.2,30.08,West,281,0.0,0.0,62,0.00,,CLR,0.00,0.00,VWS V14.01,2013-03-15 13:13:00,
2013-03-15 06:18:00,35.5,24.2,30.08,West,281,0.0,0.0,63,0.00,,CLR,0.00,0.00,VWS V14.01,2013-03-15 13:18:00,
2013-03-15 06:23:00,35.5,24.2,30.08,West,281,0.0,1.0,63,0.00,,FEW220,0.00,0.00,VWS V14.01,2013-03-15 13:23:00,
2013-03-15 06:28:00,35.4,24.1,30.08,West,281,0.0,1.0,63,0.00,,FEW220,0.00,0.00,VWS V14.01,2013-03-15 13:28:00,
2013-03-15 06:33:00,34.6,23.3,30.08,West,281,0.0,1.0,63,0.00,,FEW220,0.00,0.00,VWS V14.01,2013-03-15 13:33:00,
2013-03-15 06:38:00,34.6,24.1,30.08,West,281,2.0,2.0,65,0.00,,FEW220,0.00,0.00,VWS V14.01,2013-03-15 13:38:00,
2013-03-15 06:43:00,34.6,24.1,30.08,West,281,2.0,2.0,65,0.00,,FEW220,0.00,0.00,VWS V14.01,2013-03-15 13:43:00,
2013-03-15 06:48:00,34.8,24.2,30.07,West,281,3.0,3.0,65,0.00,,FEW220,0.00,0.00,VWS V14.01,2013-03-15 13:48:00,
2013-03-15 06:53:00,35.0,24.4,30.07,West,281,0.0,1.0,65,0.00,,FEW220,0.00,0.00,VWS V14.01,2013-03-15 13:53:00,
2013-03-15 06:58:00,35.1,24.5,30.07,West,281,1.0,2.0,65,0.00,,FEW220,0.00,0.00,VWS V14.01,2013-03-15 13:58:00,
2013-03-15 07:03:00,35.2,23.9,30.07,West,281,0.0,2.0,63,0.00,,BKN300,0.00,5.00,VWS V14.01,2013-03-15 14:03:00,
2013-03-15 07:08:00,35.0,24.1,30.07,West,281,3.0,3.0,64,0.00,,BKN300,0.00,5.00,VWS V14.01,2013-03-15 14:08:00,
2013-03-15 07:13:00,35.9,24.9,30.07,West,281,2.0,3.0,64,0.00,,BKN300,0.00,7.00,VWS V14.01,2013-03-15 14:13:00,
2013-03-15 07:18:00,36.3,24.9,30.07,West,281,1.0,2.0,63,0.00,,BKN300,0.00,11.00,VWS V14.01,2013-03-15 14:18:00,
2013-03-15 07:23:00,36.4,24.6,30.07,West,281,0.0,1.0,62,0.00,,BKN300,0.00,16.00,VWS V14.01,2013-03-15 14:23:00,
2013-03-15 07:28:00,36.3,24.5,30.06,West,281,0.0,2.0,62,0.00,,BKN300,0.00,25.00,VWS V14.01,2013-03-15 14:28:00,
2013-03-15 07:33:00,36.1,24.7,30.07,West,281,1.0,1.0,63,0.00,,BKN300,0.00,26.00,VWS V14.01,2013-03-15 14:33:00,
2013-03-15 07:38:00,35.6,24.6,30.07,SSW,197,1.0,3.0,64,0.00,,BKN300,0.00,32.00,VWS V14.01,2013-03-15 14:38:00,
2013-03-15 07:43:00,35.7,25.1,30.07,SSW,197,0.0,2.0,65,0.00,,BKN300,0.00,47.00,VWS V14.01,2013-03-15 14:43:00,
2013-03-15 07:48:00,36.0,25.4,30.08,SSW,197,0.0,1.0,65,0.00,,BKN300,0.00,63.00,VWS V14.01,2013-03-15 14:48:00,
2013-03-15 07:53:00,36.2,25.2,30.08,SSW,197,0.0,1.0,64,0.00,,BKN300,0.00,72.00,VWS V14.01,2013-03-15 14:53:00,
2013-03-15 07:58:00,36.4,25.4,30.07,SSW,197,0.0,2.0,64,0.00,,BKN300,0.00,86.00,VWS V14.01,2013-03-15 14:58:00,
2013-03-15 08:03:00,36.9,25.9,30.07,SSW,197,0.0,0.0,64,0.00,,OVC300,0.00,100.00,VWS V14.01,2013-03-15 15:03:00,
2013-03-15 08:08:00,37.5,26.5,30.08,SSW,197,0.0,0.0,64,0.00,,OVC300,0.00,100.00,VWS V14.01,2013-03-15 15:08:00,
2013-03-15 08:14:00,38.6,27.1,30.08,SSW,197,2.0,3.0,63,0.00,,OVC300,0.00,113.00,VWS V14.01,2013-03-15 15:14:00,
2013-03-15 08:19:00,39.7,27.4,30.08,SSW,197,1.0,2.0,61,0.00,,OVC300,0.00,116.00,VWS V14.01,2013-03-15 15:19:00,
2013-03-15 08:24:00,41.1,28.3,30.08,SSW,197,3.0,3.0,60,0.00,,OVC300,0.00,139.00,VWS V14.01,2013-03-15 15:24:00,
2013-03-15 08:29:00,42.0,27.9,30.08,SSW,197,0.0,1.0,57,0.00,,OVC300,0.00,153.00,VWS V14.01,2013-03-15 15:29:00,
2013-03-15 08:34:00,43.0,28.0,30.08,SSW,197,0.0,1.0,55,0.00,,OVC300,0.00,151.00,VWS V14.01,2013-03-15 15:34:00,
2013-03-15 08:39:00,43.7,27.2,30.08,SSW,197,0.0,0.0,52,0.00,,OVC300,0.00,134.00,VWS V14.01,2013-03-15 15:39:00,
2013-03-15 08:44:00,44.3,27.3,30.08,SSW,197,0.0,0.0,51,0.00,,OVC300,0.00,146.00,VWS V14.01,2013-03-15 15:44:00,
2013-03-15 08:49:00,44.9,27.4,30.08,SSW,197,1.0,2.0,50,0.00,,OVC300,0.00,165.00,VWS V14.01,2013-03-15 15:49:00,
2013-03-15 08:54:00,45.4,27.9,30.09,NW,320,0.0,3.0,50,0.00,,OVC300,0.00,183.00,VWS V14.01,2013-03-15 15:54:00,
2013-03-15 08:59:00,46.0,27.9,30.09,NW,320,0.0,1.0,49,0.00,,OVC300,0.00,225.00,VWS V14.01,2013-03-15 15:59:00,
2013-03-15 09:04:00,46.7,28.1,30.09,NW,320,0.0,1.0,48,0.00,,OVC300,0.00,214.00,VWS V14.01,2013-03-15 16:04:00,
2013-03-15 09:09:00,47.4,28.2,30.09,NW,320,0.0,2.0,47,0.00,,OVC300,0.00,237.00,VWS V14.01,2013-03-15 16:09:00,
2013-03-15 09:14:00,47.9,28.1,30.09,WNW,295,1.0,4.0,46,0.00,,OVC300,0.00,260.00,VWS V14.01,2013-03-15 16:14:00,
2013-03-15 09:19:00,48.6,27.7,30.09,WNW,299,1.0,4.0,44,0.00,,OVC300,0.00,250.00,VWS V14.01,2013-03-15 16:19:00,
2013-03-15 09:24:00,49.5,28.0,30.09,NW,322,1.0,4.0,43,0.00,,OVC300,0.00,253.00,VWS V14.01,2013-03-15 16:24:00,
2013-03-15 09:29:00,50.3,28.1,30.09,NNW,331,2.0,3.0,42,0.00,,OVC300,0.00,213.00,VWS V14.01,2013-03-15 16:29:00,
2013-03-15 09:34:00,51.0,27.5,30.09,NW,306,0.0,4.0,40,0.00,,OVC300,0.00,253.00,VWS V14.01,2013-03-15 16:34:00,
2013-03-15 09:39:00,51.9,28.4,30.08,WNW,292,0.0,3.0,40,0.00,,OVC300,0.00,278.00,VWS V14.01,2013-03-15 16:39:00,
2013-03-15 09:44:00,52.9,28.0,30.08,WNW,292,1.0,1.0,38,0.00,,OVC300,0.00,394.00,VWS V14.01,2013-03-15 16:44:00,
2013-03-15 09:49:00,54.4,28.7,30.08,WNW,292,0.0,1.0,37,0.00,,OVC300,0.00,350.00,VWS V14.01,2013-03-15 16:49:00,
2013-03-15 09:54:00,55.9,27.2,30.08,NW,317,4.0,4.0,33,0.00,,OVC300,0.00,360.00,VWS V14.01,2013-03-15 16:54:00,
2013-03-15 09:59:00,57.1,26.8,30.08,NW,310,0.0,5.0,31,0.00,,OVC300,0.00,339.00,VWS V14.01,2013-03-15 16:59:00,
2013-03-15 10:04:00,57.8,26.6,30.08,NW,323,2.0,6.0,30,0.00,,OVC220,0.00,311.00,VWS V14.01,2013-03-15 17:04:00,
2013-03-15 10:09:00,58.3,26.2,30.08,NNW,338,3.0,6.0,29,0.00,,OVC220,0.00,316.00,VWS V14.01,2013-03-15 17:09:00,
2013-03-15 10:14:00,58.4,26.3,30.09,NW,324,6.0,8.0,29,0.00,,OVC220,0.00,315.00,VWS V14.01,2013-03-15 17:14:00,
2013-03-15 10:19:00,58.3,26.2,30.09,NW,306,5.0,7.0,29,0.00,,OVC220,0.00,353.00,VWS V14.01,2013-03-15 17:19:00,
2013-03-15 10:24:00,58.6,25.6,30.09,WNW,298,5.0,9.0,28,0.00,,OVC220,0.00,380.00,VWS V14.01,2013-03-15 17:24:00,
2013-03-15 10:29:00,58.7,25.7,30.09,NW,304,5.0,7.0,28,0.00,,OVC220,0.00,385.00,VWS V14.01,2013-03-15 17:29:00,
2013-03-15 10:34:00,58.7,25.7,30.08,NW,317,3.0,5.0,28,0.00,,OVC220,0.00,369.00,VWS V14.01,2013-03-15 17:34:00,
2013-03-15 10:39:00,58.9,25.9,30.08,NW,315,1.0,4.0,28,0.00,,OVC220,0.00,362.00,VWS V14.01,2013-03-15 17:39:00,
2013-03-15 10:44:00,59.4,26.3,30.08,NW,316,0.0,3.0,28,0.00,,OVC220,0.00,353.00,VWS V14.01,2013-03-15 17:44:00,
2013-03-15 10:49:00,59.9,26.7,30.08,NW,315,0.0,2.0,28,0.00,,OVC220,0.00,362.00,VWS V14.01,2013-03-15 17:49:00,
2013-03-15 10:54:00,60.5,25.5,30.07,NW,313,0.0,4.0,26,0.00,,OVC220,0.00,452.00,VWS V14.01,2013-03-15 17:54:00,
2013-03-15 10:59:00,60.9,25.8,30.07,NW,309,0.0,4.0,26,0.00,,OVC220,0.00,401.00,VWS V14.01,2013-03-15 17:59:00,
2013-03-15 11:04:00,61.5,26.3,30.07,NW,309,1.0,2.0,26,0.00,,OVC280,0.00,452.00,VWS V14.01,2013-03-15 18:04:00,
2013-03-15 11:09:00,62.4,26.1,30.07,West,276,1.0,3.0,25,0.00,,OVC280,0.00,534.00,VWS V14.01,2013-03-15 18:09:00,
2013-03-15 11:14:00,62.9,25.6,30.07,NW,315,0.0,2.0,24,0.00,,OVC280,0.00,489.00,VWS V14.01,2013-03-15 18:14:00,
2013-03-15 11:19:00,63.8,25.3,30.06,NW,315,0.0,1.0,23,0.00,,OVC280,0.00,499.00,VWS V14.01,2013-03-15 18:19:00,
2013-03-15 11:24:00,64.4,24.8,30.06,NW,315,0.0,1.0,22,0.00,,OVC280,0.00,531.00,VWS V14.01,2013-03-15 18:24:00,
2013-03-15 11:29:00,65.1,25.3,30.06,ESE,115,2.0,3.0,22,0.00,,OVC280,0.00,548.00,VWS V14.01,2013-03-15 18:29:00,
2013-03-15 11:35:00,65.4,25.6,30.06,ESE,118,0.0,4.0,22,0.00,,OVC280,0.00,473.00,VWS V14.01,2013-03-15 18:35:00,
2013-03-15 11:40:00,65.6,24.6,30.05,SW,215,2.0,5.0,21,0.00,,OVC280,0.00,522.00,VWS V14.01,2013-03-15 18:40:00,
2013-03-15 11:45:00,66.1,25.1,30.05,WSW,238,2.0,4.0,21,0.00,,OVC280,0.00,621.00,VWS V14.01,2013-03-15 18:45:00,
2013-03-15 11:50:00,66.3,25.2,30.05,SSE,166,2.0,5.0,21,0.00,,OVC280,0.00,603.00,VWS V14.01,2013-03-15 18:50:00,
2013-03-15 11:55:00,66.2,24.0,30.05,SSE,153,0.0,5.0,20,0.00,,OVC280,0.00,552.00,VWS V14.01,2013-03-15 18:55:00,
2013-03-15 12:00:00,66.8,23.2,30.05,SSE,168,3.0,3.0,19,0.00,,OVC280,0.00,534.00,VWS V14.01,2013-03-15 19:00:00,
2013-03-15 12:05:00,67.2,23.6,30.05,SW,229,0.0,4.0,19,0.00,,OVC280,0.00,512.00,VWS V14.01,2013-03-15 19:05:00,
2013-03-15 12:10:00,67.1,23.5,30.05,SW,234,2.0,5.0,19,0.00,,OVC280,0.00,568.00,VWS V14.01,2013-03-15 19:10:00,
2013-03-15 12:15:00,67.7,24.0,30.05,SW,219,2.0,4.0,19,0.00,,OVC280,0.00,540.00,VWS V14.01,2013-03-15 19:15:00,
2013-03-15 12:20:00,67.7,24.0,30.05,WSW,238,0.0,7.0,19,0.00,,OVC280,0.00,517.00,VWS V14.01,2013-03-15 19:20:00,
2013-03-15 12:25:00,68.1,23.0,30.05,West,261,1.0,4.0,18,0.00,,OVC280,0.00,559.00,VWS V14.01,2013-03-15 19:25:00,
2013-03-15 12:30:00,68.2,23.1,30.04,SSW,211,1.0,4.0,18,0.00,,OVC280,0.00,529.00,VWS V14.01,2013-03-15 19:30:00,
2013-03-15 12:35:00,68.5,23.4,30.04,WSW,252,0.0,4.0,18,0.00,,OVC280,0.00,527.00,VWS V14.01,2013-03-15 19:35:00,
2013-03-15 12:40:00,68.9,22.3,30.04,West,263,1.0,3.0,17,0.00,,OVC280,0.00,439.00,VWS V14.01,2013-03-15 19:40:00,
2013-03-15 12:45:00,69.0,22.4,30.03,SSE,164,1.0,3.0,17,0.00,,OVC280,0.00,448.00,VWS V14.01,2013-03-15 19:45:00,
2013-03-15 12:50:00,68.1,21.7,30.03,South,187,3.0,7.0,17,0.00,,OVC280,0.00,524.00,VWS V14.01,2013-03-15 19:50:00,
2013-03-15 12:55:00,68.2,21.8,30.03,SSW,207,1.0,4.0,17,0.00,,OVC280,0.00,526.00,VWS V14.01,2013-03-15 19:55:00,
2013-03-15 13:00:00,68.6,20.6,30.02,SW,226,0.0,6.0,16,0.00,,OVC280,0.00,510.00,VWS V14.01,2013-03-15 20:00:00,
2013-03-15 13:05:00,69.2,21.1,30.02,West,260,0.0,3.0,16,0.00,,OVC220,0.00,450.00,VWS V14.01,2013-03-15 20:05:00,
2013-03-15 13:10:00,69.7,21.5,30.02,West,260,1.0,2.0,16,0.00,,OVC220,0.00,476.00,VWS V14.01,2013-03-15 20:10:00,
2013-03-15 13:15:00,69.7,23.0,30.02,SW,215,1.0,4.0,17,0.00,,OVC220,0.00,545.00,VWS V14.01,2013-03-15 20:15:00,
2013-03-15 13:20:00,70.3,22.0,30.01,WNW,289,0.0,6.0,16,0.00,,OVC220,0.00,524.00,VWS V14.01,2013-03-15 20:20:00,
2013-03-15 13:25:00,70.3,22.0,30.01,ESE,114,3.0,7.0,16,0.00,,OVC220,0.00,615.00,VWS V14.01,2013-03-15 20:25:00,
2013-03-15 13:30:00,70.4,22.1,30.01,South,169,1.0,4.0,16,0.00,,OVC220,0.00,610.00,VWS V14.01,2013-03-15 20:30:00,
2013-03-15 13:35:00,71.1,19.5,30.00,West,273,1.0,5.0,14,0.00,,OVC220,0.00,663.00,VWS V14.01,2013-03-15 20:35:00,
2013-03-15 13:40:00,71.3,19.7,30.00,North,360,1.0,3.0,14,0.00,,OVC220,0.00,668.00,VWS V14.01,2013-03-15 20:40:00,
2013-03-15 13:45:00,71.7,18.3,30.00,West,272,0.0,0.0,13,0.00,,OVC220,0.00,645.00,VWS V14.01,2013-03-15 20:45:00,
2013-03-15 13:50:00,71.7,18.3,30.00,NW,304,4.0,4.0,13,0.00,,OVC220,0.00,687.00,VWS V14.01,2013-03-15 20:50:00,
2013-03-15 13:55:00,71.2,17.9,29.99,SSW,198,0.0,1.0,13,0.00,,OVC220,0.00,575.00,VWS V14.01,2013-03-15 20:55:00,
2013-03-15 14:00:00,71.2,17.9,29.99,WNW,300,1.0,1.0,13,0.00,,OVC220,0.00,543.00,VWS V14.01,2013-03-15 21:00:00,
2013-03-15 14:05:00,71.5,18.1,29.99,NW,322,2.0,3.0,13,0.00,,OVC220,0.00,566.00,VWS V14.01,2013-03-15 21:05:00,
2013-03-15 14:10:00,71.5,18.1,29.99,NW,322,0.0,0.0,13,0.00,,OVC220,0.00,566.00,VWS V14.01,2013-03-15 21:10:00,
2013-03-15 14:15:00,72.2,14.8,29.99,WSW,258,9.0,9.0,11,0.00,,OVC220,0.00,522.00,VWS V14.01,2013-03-15 21:15:00,
2013-03-15 14:20:00,72.4,15.0,29.98,NW,315,0.0,3.0,11,0.00,,OVC220,0.00,494.00,VWS V14.01,2013-03-15 21:20:00,
2013-03-15 14:25:00,72.3,10.4,29.98,West,273,3.0,4.0,9,0.00,,OVC220,0.00,466.00,VWS V14.01,2013-03-15 21:25:00,
2013-03-15 14:30:00,72.5,7.9,29.98,West,259,5.0,5.0,8,0.00,,OVC220,0.00,548.00,VWS V14.01,2013-03-15 21:30:00,
2013-03-15 14:35:00,72.8,8.1,29.97,SW,226,3.0,5.0,8,0.00,,OVC220,0.00,554.00,VWS V14.01,2013-03-15 21:35:00,
2013-03-15 14:40:00,72.5,10.5,29.97,West,263,6.0,10.0,9,0.00,,OVC220,0.00,559.00,VWS V14.01,2013-03-15 21:40:00,
2013-03-15 14:45:00,72.8,10.7,29.97,SSW,209,2.0,5.0,9,0.00,,OVC220,0.00,512.00,VWS V14.01,2013-03-15 21:45:00,
2013-03-15 14:50:00,72.9,10.8,29.96,WSW,244,5.0,6.0,9,0.00,,OVC220,0.00,466.00,VWS V14.01,2013-03-15 21:50:00,
2013-03-15 14:55:00,72.7,10.6,29.96,WNW,296,0.0,0.0,9,0.00,,OVC220,0.00,487.00,VWS V14.01,2013-03-15 21:55:00,
2013-03-15 15:00:00,72.8,10.7,29.96,WNW,289,2.0,2.0,9,0.00,,OVC220,0.00,490.00,VWS V14.01,2013-03-15 22:00:00,
2013-03-15 15:05:00,73.0,10.9,29.96,WSW,246,5.0,5.0,9,0.00,,OVC220,0.00,436.00,VWS V14.01,2013-03-15 22:05:00,
2013-03-15 15:10:00,72.8,10.7,29.95,SW,221,6.0,7.0,9,0.00,,OVC220,0.00,504.00,VWS V14.01,2013-03-15 22:10:00,
2013-03-15 15:15:00,72.8,10.7,29.95,WSW,251,2.0,4.0,9,0.00,,OVC220,0.00,519.00,VWS V14.01,2013-03-15 22:15:00,
2013-03-15 15:20:00,73.0,10.9,29.95,WSW,238,4.0,4.0,9,0.00,,OVC220,0.00,515.00,VWS V14.01,2013-03-15 22:20:00,
2013-03-15 15:25:00,73.1,13.3,29.95,West,265,8.0,8.0,10,0.00,,OVC220,0.00,527.00,VWS V14.01,2013-03-15 22:25:00,
2013-03-15 15:30:00,73.3,11.1,29.95,NW,309,0.0,1.0,9,0.00,,OVC220,0.00,445.00,VWS V14.01,2013-03-15 22:30:00,
2013-03-15 15:35:00,73.4,11.2,29.95,NNW,341,1.0,2.0,9,0.00,,OVC220,0.00,536.00,VWS V14.01,2013-03-15 22:35:00,
2013-03-15 15:40:00,73.6,11.3,29.95,West,273,2.0,2.0,9,0.00,,OVC220,0.00,475.00,VWS V14.01,2013-03-15 22:40:00,
2013-03-15 15:45:00,73.9,11.6,29.95,SSW,213,1.0,2.0,9,0.00,,OVC220,0.00,381.00,VWS V14.01,2013-03-15 22:45:00,
2013-03-15 15:50:00,73.4,13.6,29.95,North,5,5.0,7.0,10,0.00,,OVC220,0.00,531.00,VWS V14.01,2013-03-15 22:50:00,
2013-03-15 15:55:00,72.2,12.6,29.95,NW,311,4.0,6.0,10,0.00,,OVC220,0.00,408.00,VWS V14.01,2013-03-15 22:55:00,
2013-03-15 16:00:00,71.8,12.3,29.94,NNE,15,3.0,4.0,10,0.00,,OVC220,0.00,459.00,VWS V14.01,2013-03-15 23:00:00,
2013-03-15 16:05:00,71.8,12.3,29.94,NNW,348,1.0,3.0,10,0.00,,OVC220,0.00,508.00,VWS V14.01,2013-03-15 23:05:00,
2013-03-15 16:10:00,72.2,12.6,29.94,ENE,77,2.0,2.0,10,0.00,,OVC220,0.00,394.00,VWS V14.01,2013-03-15 23:10:00,
2013-03-15 16:15:00,72.4,12.8,29.94,NE,36,3.0,6.0,10,0.00,,OVC220,0.00,278.00,VWS V14.01,2013-03-15 23:15:00,
2013-03-15 16:20:00,71.9,12.4,29.94,NE,53,4.0,4.0,10,0.00,,OVC220,0.00,325.00,VWS V14.01,2013-03-15 23:20:00,
2013-03-15 16:25:00,72.0,12.5,29.94,NE,42,0.0,0.0,10,0.00,,OVC220,0.00,341.00,VWS V14.01,2013-03-15 23:25:00,
2013-03-15 16:30:00,72.0,12.5,29.94,North,360,2.0,3.0,10,0.00,,OVC220,0.00,237.00,VWS V14.01,2013-03-15 23:30:00,
2013-03-15 16:35:00,71.7,12.3,29.94,NNE,29,0.0,0.0,10,0.00,,OVC220,0.00,309.00,VWS V14.01,2013-03-15 23:35:00,
2013-03-15 16:40:00,72.1,12.6,29.94,WNW,302,0.0,0.0,10,0.00,,OVC220,0.00,360.00,VWS V14.01,2013-03-15 23:40:00,
2013-03-15 16:46:00,73.0,13.3,29.94,NW,318,2.0,3.0,10,0.00,,OVC220,0.00,308.00,VWS V14.01,2013-03-15 23:46:00,
2013-03-15 16:51:00,73.1,13.3,29.94,NNW,336,1.0,1.0,10,0.00,,OVC220,0.00,323.00,VWS V14.01,2013-03-15 23:51:00,
2013-03-15 16:56:00,73.0,13.3,29.93,North,351,2.0,4.0,10,0.00,,OVC220,0.00,350.00,VWS V14.01,2013-03-15 23:56:00,
2013-03-15 17:01:00,72.7,13.0,29.94,NNE,24,0.0,2.0,10,0.00,,OVC220,0.00,243.00,VWS V14.01,2013-03-16 00:01:00,
2013-03-15 17:06:00,72.8,13.1,29.94,WNW,294,0.0,1.0,10,0.00,,OVC220,0.00,265.00,VWS V14.01,2013-03-16 00:06:00,
2013-03-15 17:11:00,72.8,13.1,29.94,NW,312,2.0,2.0,10,0.00,,OVC220,0.00,186.00,VWS V14.01,2013-03-16 00:11:00,
2013-03-15 17:16:00,72.3,12.7,29.94,NNE,15,2.0,3.0,10,0.00,,OVC220,0.00,195.00,VWS V14.01,2013-03-16 00:16:00,
2013-03-15 17:21:00,71.9,12.4,29.94,NNE,15,0.0,0.0,10,0.00,,OVC220,0.00,155.00,VWS V14.01,2013-03-16 00:21:00,
2013-03-15 17:26:00,71.9,14.6,29.94,NNE,15,0.0,0.0,11,0.00,,OVC220,0.00,158.00,VWS V14.01,2013-03-16 00:26:00,
2013-03-15 17:31:00,71.7,12.3,29.94,WSW,258,4.0,6.0,10,0.00,,OVC220,0.00,146.00,VWS V14.01,2013-03-16 00:31:00,
2013-03-15 17:36:00,71.6,14.4,29.94,NW,309,1.0,1.0,11,0.00,,OVC220,0.00,151.00,VWS V14.01,2013-03-16 00:36:00,
2013-03-15 17:41:00,71.4,14.2,29.94,NW,314,0.0,1.0,11,0.00,,OVC220,0.00,155.00,VWS V14.01,2013-03-16 00:41:00,
2013-03-15 17:46:00,71.4,14.2,29.94,NW,314,0.0,0.0,11,0.00,,OVC220,0.00,139.00,VWS V14.01,2013-03-16 00:46:00,
2013-03-15 17:51:00,71.3,14.1,29.94,NW,314,0.0,0.0,11,0.00,,OVC220,0.00,116.00,VWS V14.01,2013-03-16 00:51:00,
2013-03-15 17:56:00,71.3,14.1,29.94,NW,314,1.0,1.0,11,0.00,,OVC220,0.00,102.00,VWS V14.01,2013-03-16 00:56:00,
2013-03-15 18:01:00,71.0,13.9,29.94,NW,314,0.0,1.0,11,0.00,,OVC220,0.00,91.00,VWS V14.01,2013-03-16 01:01:00,
2013-03-15 18:06:00,70.7,13.6,29.94,North,5,5.0,5.0,11,0.00,,OVC220,0.00,79.00,VWS V14.01,2013-03-16 01:06:00,
2013-03-15 18:11:00,70.3,13.3,29.94,NNW,333,1.0,3.0,11,0.00,,OVC220,0.00,72.00,VWS V14.01,2013-03-16 01:11:00,
2013-03-15 18:16:00,69.9,13.0,29.94,NW,320,1.0,3.0,11,0.00,,OVC220,0.00,63.00,VWS V14.01,2013-03-16 01:16:00,
2013-03-15 18:21:00,69.7,14.9,29.94,NNW,345,4.0,4.0,12,0.00,,OVC220,0.00,54.00,VWS V14.01,2013-03-16 01:21:00,
2013-03-15 18:26:00,69.4,14.6,29.94,NW,321,2.0,3.0,12,0.00,,OVC220,0.00,46.00,VWS V14.01,2013-03-16 01:26:00,
2013-03-15 18:31:00,68.9,14.2,29.94,NW,320,0.0,3.0,12,0.00,,OVC220,0.00,39.00,VWS V14.01,2013-03-16 01:31:00,
2013-03-15 18:36:00,68.5,13.9,29.94,NW,319,4.0,4.0,12,0.00,,OVC220,0.00,28.00,VWS V14.01,2013-03-16 01:36:00,
2013-03-15 18:41:00,68.1,13.6,29.94,NW,308,3.0,5.0,12,0.00,,OVC220,0.00,21.00,VWS V14.01,2013-03-16 01:41:00,
2013-03-15 18:46:00,67.6,13.2,29.94,NNW,331,1.0,3.0,12,0.00,,OVC220,0.00,14.00,VWS V14.01,2013-03-16 01:46:00,
2013-03-15 18:51:00,66.9,12.7,29.94,NNW,329,1.0,3.0,12,0.00,,OVC220,0.00,12.00,VWS V14.01,2013-03-16 01:51:00,
2013-03-15 18:56:00,66.2,13.9,29.94,NNW,333,2.0,4.0,13,0.00,,OVC220,0.00,7.00,VWS V14.01,2013-03-16 01:56:00,
2013-03-15 19:01:00,65.7,13.5,29.94,NNW,330,4.0,5.0,13,0.00,,OVC220,0.00,0.00,VWS V14.01,2013-03-16 02:01:00,
2013-03-15 19:06:00,65.1,13.1,29.94,NW,323,3.0,6.0,13,0.00,,OVC220,0.00,0.00,VWS V14.01,2013-03-16 02:06:00,
2013-03-15 19:11:00,64.7,12.8,29.94,NNW,345,2.0,4.0,13,0.00,,OVC220,0.00,0.00,VWS V14.01,2013-03-16 02:11:00,
2013-03-15 19:16:00,64.1,14.0,29.94,NNW,331,2.0,3.0,14,0.00,,OVC220,0.00,0.00,VWS V14.01,2013-03-16 02:16:00,
2013-03-15 19:21:00,63.6,13.6,29.95,NNW,336,2.0,4.0,14,0.00,,OVC220,0.00,0.00,VWS V14.01,2013-03-16 02:21:00,
2013-03-15 19:26:00,62.9,13.0,29.95,NNW,336,3.0,4.0,14,0.00,,OVC220,0.00,0.00,VWS V14.01,2013-03-16 02:26:00,
2013-03-15 19:31:00,62.4,14.2,29.95,NNW,336,1.0,3.0,15,0.00,,OVC220,0.00,0.00,VWS V14.01,2013-03-16 02:31:00,
2013-03-15 19:36:00,61.9,13.8,29.95,NW,317,2.0,3.0,15,0.00,,OVC220,0.00,0.00,VWS V14.01,2013-03-16 02:36:00,
2013-03-15 19:41:00,62.0,13.9,29.95,NW,320,3.0,4.0,15,0.00,,OVC220,0.00,0.00,VWS V14.01,2013-03-16 02:41:00,
2013-03-15 19:46:00,62.9,14.6,29.95,NW,313,4.0,6.0,15,0.00,,OVC220,0.00,0.00,VWS V14.01,2013-03-16 02:46:00,
2013-03-15 19:52:00,63.1,14.7,29.96,NW,304,6.0,6.0,15,0.00,,OVC220,0.00,0.00,VWS V14.01,2013-03-16 02:52:00,
2013-03-15 19:57:00,62.8,14.5,29.96,WNW,300,6.0,9.0,15,0.00,,OVC220,0.00,0.00,VWS V14.01,2013-03-16 02:57:00,
2013-03-15 20:02:00,62.5,14.2,29.96,NW,310,4.0,8.0,15,0.00,,OVC180,0.00,0.00,VWS V14.01,2013-03-16 03:02:00,
2013-03-15 20:07:00,62.7,15.9,29.96,NW,320,6.0,9.0,16,0.00,,OVC180,0.00,0.00,VWS V14.01,2013-03-16 03:07:00,
2013-03-15 20:12:00,62.8,16.0,29.96,NW,315,3.0,7.0,16,0.00,,OVC180,0.00,0.00,VWS V14.01,2013-03-16 03:12:00,
2013-03-15 20:17:00,62.8,16.0,29.96,NW,307,4.0,7.0,16,0.00,,OVC180,0.00,0.00,VWS V14.01,2013-03-16 03:17:00,
2013-03-15 20:22:00,62.5,15.7,29.96,WNW,303,3.0,7.0,16,0.00,,OVC180,0.00,0.00,VWS V14.01,2013-03-16 03:22:00,
2013-03-15 20:27:00,62.2,15.5,29.96,NNW,331,7.0,8.0,16,0.00,,OVC180,0.00,0.00,VWS V14.01,2013-03-16 03:27:00,
2013-03-15 20:32:00,62.2,16.9,29.96,WNW,302,5.0,6.0,17,0.00,,OVC180,0.00,0.00,VWS V14.01,2013-03-16 03:32:00,
2013-03-15 20:37:00,62.0,16.7,29.96,NW,304,4.0,8.0,17,0.00,,OVC180,0.00,0.00,VWS V14.01,2013-03-16 03:37:00,
2013-03-15 20:42:00,61.7,17.8,29.96,NW,309,4.0,7.0,18,0.00,,OVC180,0.00,0.00,VWS V14.01,2013-03-16 03:42:00,
2013-03-15 20:47:00,61.4,17.5,29.96,NW,304,4.0,6.0,18,0.00,,OVC180,0.00,0.00,VWS V14.01,2013-03-16 03:47:00,
2013-03-15 20:52:00,61.0,17.2,29.96,NW,306,1.0,5.0,18,0.00,,OVC180,0.00,0.00,VWS V14.01,2013-03-16 03:52:00,
2013-03-15 20:57:00,60.7,18.2,29.96,NW,311,4.0,5.0,19,0.00,,OVC180,0.00,0.00,VWS V14.01,2013-03-16 03:57:00,
2013-03-15 21:00:00,60.6,18.1,29.96,NW,316,2.0,7.0,19,0.00,,OVC180,0.00,0.00,VWS V14.01,2013-03-16 04:00:00,
2013-03-15 21:05:00,60.3,17.9,29.96,NW,323,3.0,5.0,19,0.00,,OVC180,0.00,0.00,VWS V14.01,2013-03-16 04:05:00,
2013-03-15 21:10:00,60.2,17.8,29.96,NNW,335,3.0,3.0,19,0.00,,OVC180,0.00,0.00,VWS V14.01,2013-03-16 04:10:00,
2013-03-15 21:15:00,60.1,18.9,29.96,NNW,331,3.0,3.0,20,0.00,,OVC180,0.00,0.00,VWS V14.01,2013-03-16 04:15:00,
2013-03-15 21:20:00,59.9,18.8,29.96,NNW,340,2.0,2.0,20,0.00,,OVC180,0.00,0.00,VWS V14.01,2013-03-16 04:20:00,
2013-03-15 21:25:00,59.4,18.3,29.96,NNW,340,2.0,2.0,20,0.00,,OVC180,0.00,0.00,VWS V14.01,2013-03-16 04:25:00,
2013-03-15 21:30:00,58.9,17.9,29.96,NNW,340,2.0,2.0,20,0.00,,OVC180,0.00,0.00,VWS V14.01,2013-03-16 04:30:00,
2013-03-15 21:35:00,58.7,18.9,29.96,NNW,335,3.0,3.0,21,0.00,,OVC180,0.00,0.00,VWS V14.01,2013-03-16 04:35:00,
2013-03-15 21:40:00,58.5,18.7,29.96,NNW,335,1.0,2.0,21,0.00,,OVC180,0.00,0.00,VWS V14.01,2013-03-16 04:40:00,
2013-03-15 21:45:00,58.6,18.8,29.96,NNW,334,2.0,3.0,21,0.00,,OVC180,0.00,0.00,VWS V14.01,2013-03-16 04:45:00,
2013-03-15 21:50:00,58.9,19.1,29.96,NW,319,4.0,5.0,21,0.00,,OVC180,0.00,0.00,VWS V14.01,2013-03-16 04:50:00,
2013-03-15 21:55:00,59.3,18.3,29.96,NW,322,4.0,6.0,20,0.00,,OVC180,0.00,0.00,VWS V14.01,2013-03-16 04:55:00,
2013-03-15 22:00:00,59.6,18.5,29.96,NNW,331,5.0,6.0,20,0.00,,OVC180,0.00,0.00,VWS V14.01,2013-03-16 05:00:00,
2013-03-15 22:05:00,59.8,17.5,29.97,NW,317,4.0,7.0,19,0.00,,OVC180,0.00,0.00,VWS V14.01,2013-03-16 05:05:00,
2013-03-15 22:10:00,60.0,17.6,29.97,NNW,329,6.0,8.0,19,0.00,,OVC180,0.00,0.00,VWS V14.01,2013-03-16 05:10:00,
2013-03-15 22:15:00,60.1,17.7,29.97,NW,322,7.0,7.0,19,0.00,,OVC180,0.00,0.00,VWS V14.01,2013-03-16 05:15:00,
2013-03-15 22:21:00,60.1,17.7,29.97,NNW,327,5.0,9.0,19,0.00,,OVC180,0.00,0.00,VWS V14.01,2013-03-16 05:21:00,
2013-03-15 22:26:00,60.2,17.8,29.97,NW,314,3.0,7.0,19,0.00,,OVC180,0.00,0.00,VWS V14.01,2013-03-16 05:26:00,
2013-03-15 22:31:00,60.1,18.9,29.97,NNW,327,6.0,7.0,20,0.00,,OVC180,0.00,0.00,VWS V14.01,2013-03-16 05:31:00,
2013-03-15 22:36:00,60.2,19.0,29.97,NW,322,9.0,10.0,20,0.00,,OVC180,0.00,0.00,VWS V14.01,2013-03-16 05:36:00,
2013-03-15 22:41:00,60.1,18.9,29.97,NW,323,8.0,11.0,20,0.00,,OVC180,0.00,0.00,VWS V14.01,2013-03-16 05:41:00,
2013-03-15 22:46:00,59.8,18.7,29.97,NW,304,5.0,10.0,20,0.00,,OVC180,0.00,0.00,VWS V14.01,2013-03-16 05:46:00,
2013-03-15 22:51:00,59.7,19.7,29.97,WNW,297,8.0,11.0,21,0.00,,OVC180,0.00,0.00,VWS V14.01,2013-03-16 05:51:00,
2013-03-15 22:56:00,59.7,19.7,29.98,North,351,10.0,11.0,21,0.00,,OVC180,0.00,0.00,VWS V14.01,2013-03-16 05:56:00,
2013-03-15 23:01:00,59.8,20.9,29.97,NW,322,5.0,10.0,22,0.00,,FEW120,0.00,0.00,VWS V14.01,2013-03-16 06:01:00,
2013-03-15 23:07:00,59.8,22.0,29.97,NW,304,4.0,8.0,23,0.00,,FEW120,0.00,0.00,VWS V14.01,2013-03-16 06:07:00,
2013-03-15 23:11:00,59.6,21.8,29.97,North,350,4.0,8.0,23,0.00,,FEW120,0.00,0.00,VWS V14.01,2013-03-16 06:11:00,
2013-03-15 23:16:00,59.4,22.6,29.97,NNW,337,6.0,7.0,24,0.00,,FEW120,0.00,0.00,VWS V14.01,2013-03-16 06:16:00,
2013-03-15 23:21:00,59.2,22.5,29.96,NNW,327,3.0,4.0,24,0.00,,FEW120,0.00,0.00,VWS V14.01,2013-03-16 06:21:00,
2013-03-15 23:27:00,59.0,22.3,29.96,NW,325,2.0,4.0,24,0.00,,FEW120,0.00,0.00,VWS V14.01,2013-03-16 06:27:00,
2013-03-15 23:32:00,58.7,23.0,29.96,NNW,327,3.0,3.0,25,0.00,,FEW120,0.00,0.00,VWS V14.01,2013-03-16 06:32:00,
2013-03-15 23:37:00,58.5,22.8,29.97,NNW,327,1.0,3.0,25,0.00,,FEW120,0.00,0.00,VWS V14.01,2013-03-16 06:37:00,
2013-03-15 23:42:00,58.1,23.4,29.96,NNW,327,0.0,3.0,26,0.00,,FEW120,0.00,0.00,VWS V14.01,2013-03-16 06:42:00,
2013-03-15 23:47:00,57.9,23.2,29.96,NW,323,2.0,2.0,26,0.00,,FEW120,0.00,0.00,VWS V14.01,2013-03-16 06:47:00,
2013-03-15 23:52:00,57.1,22.6,29.95,South,175,1.0,3.0,26,0.00,,FEW120,0.00,0.00,VWS V14.01,2013-03-16 06:52:00,
2013-03-15 23:57:00,56.7,22.2,29.94,SSE,157,3.0,3.0,26,0.00,,FEW120,0.00,0.00,VWS V14.01,2013-03-16 06:57:00,